DW8587 Weather Reports


Display with metric or nautical units.
time (UTC)temp
F
wind
direction
speed
MPH
gust
MPH
rain 1hr
in
rain 24hr
in
rain mn
in
humidity
%
barometer
mb
20260904061552 70 42 2.0 4.0 0.00 0.00 0.00 73 1018.1
20260904060046 69 40 1.0 3.0 0.00 0.00 0.00 74 1018.1
20260904054543 68 34 2.0 3.0 0.00 0.00 0.00 76 1018.1
20260904053041 66 42 3.0 5.0 0.00 0.00 0.00 79 1018.0
20260904051536 65 37 3.0 6.0 0.00 0.00 0.00 80 1017.8
20260904050032 65 34 4.0 6.0 0.00 0.00 0.00 80 1017.7
20260904044541 66 40 2.0 5.0 0.00 0.00 0.00 79 1017.5
20260904043030 66 28 3.0 8.0 0.00 0.00 0.00 79 1017.5
20260904041536 66 9 2.0 5.0 0.00 0.00 0.00 79 1017.6
20260904040029 66 39 4.0 8.0 0.00 0.00 0.00 79 1017.5
20260904034528 66 43 3.0 5.0 0.00 0.00 0.00 79 1017.5
20260904033027 66 32 4.0 6.0 0.00 0.00 0.00 79 1017.6
20260904031526 66 44 5.0 8.0 0.00 0.00 0.00 79 1017.7
20260904030027 67 40 3.0 7.0 0.00 0.00 0.00 79 1017.6
20260904024524 66 38 5.0 6.0 0.00 0.00 0.00 80 1017.6
20260904023023 67 22 4.0 6.0 0.00 0.00 0.00 79 1017.7
20260904021521 68 28 2.0 4.0 0.00 0.00 0.00 78 1017.6
20260904020032 68 34 2.0 3.0 0.00 0.00 0.00 78 1017.5
20260904014518 68 34 1.0 5.0 0.00 0.00 0.00 78 1017.5
20260904013017 68 39 4.0 5.0 0.00 0.00 0.00 78 1017.4
20260904011516 69 44 5.0 7.0 0.00 0.00 0.00 78 1017.3
20260904010017 69 355 3.0 5.0 0.00 0.00 0.00 78 1017.3
20260904004515 69 41 3.0 5.0 0.00 0.00 0.00 78 1017.4
20260904003013 69 355 2.0 3.0 0.00 0.00 0.00 77 1017.5
20260904001512 69 32 2.0 3.0 0.00 0.00 0.00 77 1017.5
20260904000009 70 27 1.0 3.0 0.00 0.00 0.00 76 1017.6
20260903234510 70 5 1.0 3.0 0.00 0.00 0.00 75 1017.7
20260903233008 70 34 4.0 6.0 0.00 0.00 0.00 75 1017.7
20260903231506 70 34 3.0 6.0 0.00 0.00 0.00 76 1017.7
20260903230005 70 39 4.0 6.0 0.00 0.00 0.00 76 1017.5
20260903224503 70 44 3.0 4.0 0.00 0.00 0.00 76 1017.4
20260903223002 71 355 2.0 4.0 0.00 0.00 0.00 75 1017.6
20260903221503 71 34 3.0 6.0 0.00 0.00 0.00 75 1017.6
20260903220106 71 26 3.0 8.0 0.00 0.00 0.00 75 1017.7
20260903214557 71 38 3.0 5.0 0.00 0.00 0.00 74 1017.7
20260903213057 72 36 3.0 5.0 0.00 0.00 0.00 74 1017.6
20260903211608 72 42 2.0 5.0 0.00 0.00 0.00 74 1017.5
20260903210056 72 28 4.0 6.0 0.00 0.00 0.00 74 1017.5
20260903204601 72 346 2.0 6.0 0.00 0.00 0.00 74 1017.5
20260903203055 72 18 2.0 5.0 0.00 0.00 0.00 74 1017.4
20260903201555 73 41 2.0 4.0 0.00 0.00 0.00 74 1017.3
20260903200059 74 9 1.0 3.0 0.00 0.00 0.00 72 1017.3
20260903194555 74 39 1.0 4.0 0.00 0.00 0.00 71 1017.2
20260903193058 75 41 3.0 5.0 0.00 0.00 0.00 71 1017.2
20260903191601 75 38 3.0 6.0 0.00 0.00 0.00 70 1017.1
20260903190053 76 28 2.0 3.0 0.00 0.00 0.00 68 1016.8
20260903184553 78 38 2.0 3.0 0.00 0.00 0.00 66 1016.7
20260903183114 79 36 2.0 4.0 0.00 0.00 0.00 63 1016.5
20260903181557 81 267 1.0 2.0 0.00 0.00 0.00 59 1016.4
20260903180049 83 267 0.0 1.0 0.00 0.00 0.00 56 1016.3
20260903174548 84 267 0.0 2.0 0.00 0.00 0.00 52 1016.2
20260903173056 85 267 0.0 0.0 0.00 0.00 0.00 51 1016.1
20260903171556 85 267 0.0 1.0 0.00 0.00 0.00 48 1016.2
20260903170047 86 267 0.0 3.0 0.00 0.00 0.00 48 1016.2
20260903164547 87 267 1.0 5.0 0.00 0.00 0.00 47 1016.1
20260903163047 87 319 0.0 5.0 0.00 0.00 0.00 45 1016.1
20260903161601 88 246 3.0 8.0 0.00 0.00 0.00 44 1016.1
20260903160045 90 302 2.0 6.0 0.00 0.00 0.00 41 1016.1
20260903154545 90 275 2.0 6.0 0.00 0.00 0.00 38 1016.2
20260903153043 91 308 3.0 8.0 0.00 0.00 0.00 39 1016.1
20260903151546 90 301 2.0 7.0 0.00 0.00 0.00 40 1016.1
20260903150042 89 323 1.0 8.0 0.00 0.00 0.00 43 1016.3
20260903144641 90 310 3.0 9.0 0.00 0.00 0.00 43 1016.3
20260903143043 90 296 3.0 6.0 0.00 0.00 0.00 41 1016.3
20260903141537 90 291 1.0 8.0 0.00 0.00 0.00 41 1016.5
20260903140036 89 314 3.0 7.0 0.00 0.00 0.00 39 1016.7
20260903134542 88 269 1.0 4.0 0.00 0.00 0.00 42 1016.8
20260903133041 89 297 2.0 5.0 0.00 0.00 0.00 43 1016.9
20260903131538 88 279 2.0 7.0 0.00 0.00 0.00 45 1017.0
20260903130032 89 246 1.0 6.0 0.00 0.00 0.00 46 1017.2
20260903124548 88 61 2.0 9.0 0.00 0.00 0.00 46 1017.4
20260903123028 88 323 1.0 6.0 0.00 0.00 0.00 46 1017.4
20260903121540 86 301 1.0 8.0 0.00 0.00 0.00 47 1017.6
20260903120025 86 52 1.0 6.0 0.00 0.00 0.00 47 1017.6
20260903114524 86 148 2.0 8.0 0.00 0.00 0.00 48 1017.8
20260903113022 85 140 3.0 7.0 0.00 0.00 0.00 47 1017.8
20260903111520 86 257 3.0 7.0 0.00 0.00 0.00 47 1017.8
20260903110018 85 206 2.0 5.0 0.00 0.00 0.00 46 1018.0
20260903104524 84 140 3.0 7.0 0.00 0.00 0.00 45 1018.1
20260903103013 84 86 2.0 7.0 0.00 0.00 0.00 50 1018.4
20260903101518 84 107 3.0 6.0 0.00 0.00 0.00 50 1018.6
20260903100019 84 87 2.0 4.0 0.00 0.00 0.00 51 1018.8
20260903094505 83 173 0.0 6.0 0.00 0.00 0.00 54 1018.7
20260903093002 83 279 1.0 5.0 0.00 0.00 0.00 53 1018.7
20260903091605 82 39 3.0 6.0 0.00 0.00 0.00 54 1018.7
20260903090054 82 112 2.0 6.0 0.00 0.00 0.00 55 1018.8
20260903084550 81 115 3.0 5.0 0.00 0.00 0.00 57 1018.8
20260903083047 80 351 1.0 7.0 0.00 0.00 0.00 57 1018.6
20260903081547 80 52 4.0 6.0 0.00 0.00 0.00 55 1018.8
20260903080039 79 36 3.0 6.0 0.00 0.00 0.00 58 1018.7
20260903074534 79 37 4.0 6.0 0.00 0.00 0.00 56 1018.6
20260903073042 78 349 2.0 5.0 0.00 0.00 0.00 59 1018.4
20260903071528 76 5 2.0 4.0 0.00 0.00 0.00 62 1018.5
20260903070021 75 46 2.0 4.0 0.00 0.00 0.00 65 1018.4
20260903064516 73 49 3.0 5.0 0.00 0.00 0.00 66 1018.5
20260903063012 71 345 2.0 5.0 0.00 0.00 0.00 69 1018.5